| time (UTC) | temp F | wind direction | speed knots | gust knots | rain 1hr in | rain 24hr in | rain mn in | humidity % | barometer mb |
| 20260906231049 | 65 | 39 | 0.0 | 0.9 | 0.00 | 0.00 | 0.00 | 10 | 1017.7 |
| 20260906230549 | 64 | 358 | 0.0 | 0.0 | 0.00 | 0.00 | 0.00 | 10 | 1017.8 |
| 20260906230048 | 64 | 0 | 0.0 | 0.0 | 0.00 | 0.00 | 0.00 | 10 | 1018.0 |
| 20260906225543 | 65 | 43 | 0.0 | 0.0 | 0.00 | 0.00 | 0.00 | 10 | 1018.0 |
| 20260906225038 | 64 | 17 | 0.0 | 0.0 | 0.00 | 0.00 | 0.00 | 10 | 1017.9 |
| 20260906224534 | 64 | 356 | 0.0 | 0.9 | 0.00 | 0.00 | 0.00 | 10 | 1017.9 |
| 20260906224031 | 63 | 26 | 0.0 | 0.9 | 0.00 | 0.00 | 0.00 | 10 | 1018.0 |
| 20260906223526 | 64 | 12 | 0.0 | 0.9 | 0.00 | 0.00 | 0.00 | 10 | 1018.3 |
| 20260906223025 | 64 | 38 | 0.0 | 1.7 | 0.00 | 0.00 | 0.00 | 10 | 1017.9 |
| 20260906222519 | 64 | 347 | 0.0 | 0.0 | 0.00 | 0.00 | 0.00 | 10 | 1018.0 |
| 20260906222017 | 64 | 42 | 0.0 | 0.9 | 0.00 | 0.00 | 0.00 | 10 | 1018.0 |
| 20260906221516 | 63 | 38 | 0.0 | 0.9 | 0.00 | 0.00 | 0.00 | 10 | 1018.1 |
| 20260906221012 | 63 | 35 | 0.0 | 0.0 | 0.00 | 0.00 | 0.00 | 10 | 1018.0 |
| 20260906220511 | 62 | 25 | 0.0 | 0.0 | 0.00 | 0.00 | 0.00 | 10 | 1018.1 |
| 20260906220007 | 62 | 31 | 0.0 | 0.9 | 0.00 | 0.00 | 0.00 | 10 | 1017.8 |
| 20260906215506 | 62 | 20 | 0.0 | 0.0 | 0.00 | 0.00 | 0.00 | 10 | 1018.0 |
| 20260906215003 | 62 | 32 | 0.0 | 0.0 | 0.00 | 0.00 | 0.00 | 10 | 1018.1 |
| 20260906214502 | 62 | 15 | 0.0 | 0.0 | 0.00 | 0.00 | 0.00 | 10 | 1018.3 |
| 20260906213957 | 62 | 30 | 0.0 | 0.9 | 0.00 | 0.00 | 0.00 | 10 | 1018.1 |
| 20260906213451 | 62 | 30 | 0.0 | 0.9 | 0.00 | 0.00 | 0.00 | 10 | 1018.1 |
| 20260906212950 | 62 | 25 | 0.0 | 0.0 | 0.00 | 0.00 | 0.00 | 10 | 1018.3 |
| 20260906212445 | 61 | 42 | 0.0 | 0.0 | 0.00 | 0.00 | 0.00 | 10 | 1018.4 |
| 20260906211940 | 61 | 13 | 0.0 | 0.0 | 0.00 | 0.00 | 0.00 | 10 | 1018.3 |
| 20260906211440 | 61 | 22 | 0.0 | 0.0 | 0.00 | 0.00 | 0.00 | 10 | 1018.4 |
| 20260906210935 | 62 | 37 | 0.0 | 0.9 | 0.00 | 0.00 | 0.00 | 10 | 1018.4 |
| 20260906210431 | 62 | 38 | 0.0 | 0.9 | 0.00 | 0.00 | 0.00 | 10 | 1018.3 |
| 20260906205924 | 61 | 28 | 0.0 | 0.9 | 0.00 | 0.00 | 0.00 | 10 | 1018.3 |
| 20260906205421 | 62 | 12 | 0.0 | 0.0 | 0.00 | 0.00 | 0.00 | 10 | 1018.5 |
| 20260906204917 | 62 | 24 | 0.0 | 0.0 | 0.00 | 0.00 | 0.00 | 10 | 1018.4 |
| 20260906204416 | 62 | 26 | 0.0 | 0.0 | 0.00 | 0.00 | 0.00 | 10 | 1018.4 |
| 20260906203915 | 62 | 46 | 0.0 | 0.9 | 0.00 | 0.00 | 0.00 | 10 | 1018.5 |
| 20260906203410 | 62 | 10 | 0.0 | 1.7 | 0.00 | 0.00 | 0.00 | 10 | 1018.4 |
| 20260906202908 | 62 | 37 | 0.0 | 0.0 | 0.00 | 0.00 | 0.00 | 10 | 1018.4 |
| 20260906202402 | 61 | 38 | 0.0 | 0.0 | 0.00 | 0.00 | 0.00 | 10 | 1018.4 |
| 20260906201902 | 62 | 0 | 0.0 | 0.0 | 0.00 | 0.00 | 0.00 | 10 | 1018.4 |
| 20260906201356 | 63 | 15 | 0.0 | 0.0 | 0.00 | 0.00 | 0.00 | 10 | 1018.1 |
| 20260906200851 | 62 | 336 | 0.0 | 0.0 | 0.00 | 0.00 | 0.00 | 10 | 1018.1 |
| 20260906200348 | 62 | 1 | 0.0 | 0.0 | 0.00 | 0.00 | 0.00 | 10 | 1018.5 |
| 20260906195842 | 62 | 29 | 0.0 | 0.0 | 0.00 | 0.00 | 0.00 | 10 | 1018.3 |
| 20260906195339 | 62 | 36 | 0.0 | 0.9 | 0.00 | 0.00 | 0.00 | 10 | 1018.5 |
| 20260906194834 | 62 | 41 | 0.0 | 0.9 | 0.00 | 0.00 | 0.00 | 10 | 1018.4 |
| 20260906194330 | 62 | 30 | 0.0 | 0.9 | 0.00 | 0.00 | 0.00 | 10 | 1018.6 |
| 20260906193825 | 63 | 28 | 0.0 | 1.7 | 0.00 | 0.00 | 0.00 | 10 | 1018.4 |
| 20260906193319 | 61 | 38 | 0.0 | 0.0 | 0.00 | 0.00 | 0.00 | 10 | 1018.6 |
| 20260906192810 | 62 | 22 | 0.0 | 0.0 | 0.00 | 0.00 | 0.00 | 10 | 1018.3 |
| 20260906192310 | 61 | 32 | 0.0 | 0.0 | 0.00 | 0.00 | 0.00 | 10 | 1018.4 |
| 20260906191809 | 61 | 32 | 0.0 | 0.0 | 0.00 | 0.00 | 0.00 | 10 | 1018.3 |
| 20260906191304 | 61 | 34 | 0.0 | 1.7 | 0.00 | 0.00 | 0.00 | 10 | 1018.4 |
| 20260906190803 | 61 | 36 | 0.0 | 1.7 | 0.00 | 0.00 | 0.00 | 10 | 1018.3 |
| 20260906190258 | 61 | 46 | 0.0 | 0.0 | 0.00 | 0.00 | 0.00 | 10 | 1018.3 |
| 20260906185757 | 61 | 24 | 0.0 | 0.0 | 0.00 | 0.00 | 0.00 | 10 | 1018.8 |
| 20260906185256 | 60 | 33 | 0.0 | 0.9 | 0.00 | 0.00 | 0.00 | 10 | 1018.4 |
| 20260906184751 | 59 | 34 | 0.0 | 1.7 | 0.00 | 0.00 | 0.00 | 10 | 1018.5 |
| 20260906184246 | 60 | 45 | 0.9 | 2.6 | 0.00 | 0.00 | 0.00 | 10 | 1018.6 |
| 20260906183742 | 59 | 36 | 0.0 | 1.7 | 0.00 | 0.00 | 0.00 | 10 | 1018.6 |
| 20260906183238 | 60 | 33 | 0.0 | 2.6 | 0.00 | 0.00 | 0.00 | 10 | 1018.8 |
| 20260906182738 | 59 | 33 | 0.0 | 1.7 | 0.00 | 0.00 | 0.00 | 10 | 1018.6 |
| 20260906182233 | 60 | 38 | 0.9 | 1.7 | 0.00 | 0.00 | 0.00 | 10 | 1019.0 |
| 20260906181723 | 59 | 35 | 0.9 | 1.7 | 0.00 | 0.00 | 0.00 | 10 | 1018.7 |
| 20260906181219 | 59 | 27 | 0.0 | 0.0 | 0.00 | 0.00 | 0.00 | 10 | 1018.8 |
| 20260906180714 | 58 | 54 | 0.0 | 0.0 | 0.00 | 0.00 | 0.00 | 10 | 1018.7 |
| 20260906180209 | 58 | 28 | 0.0 | 0.0 | 0.00 | 0.00 | 0.00 | 10 | 1019.4 |
| 20260906175707 | 57 | 353 | 0.9 | 0.9 | 0.00 | 0.00 | 0.00 | 10 | 1019.7 |
| 20260906175203 | 57 | 350 | 0.0 | 0.0 | 0.00 | 0.00 | 0.00 | 10 | 1020.1 |
| 20260906174700 | 57 | 17 | 0.0 | 0.9 | 0.00 | 0.00 | 0.00 | 10 | 1020.5 |
| 20260906174155 | 57 | 3 | 0.0 | 2.6 | 0.00 | 0.00 | 0.00 | 10 | 1020.1 |
| 20260906173650 | 57 | 21 | 0.0 | 1.7 | 0.00 | 0.00 | 0.00 | 10 | 1020.5 |
| 20260906173146 | 57 | 33 | 0.9 | 1.7 | 0.00 | 0.00 | 0.00 | 10 | 1020.1 |
| 20260906172645 | 57 | 35 | 0.0 | 0.0 | 0.00 | 0.00 | 0.00 | 10 | 1020.2 |
| 20260906172141 | 57 | 15 | 0.9 | 1.7 | 0.00 | 0.00 | 0.00 | 10 | 1020.5 |
| 20260906171640 | 56 | 37 | 0.0 | 0.9 | 0.00 | 0.00 | 0.00 | 10 | 1020.3 |
| 20260906171136 | 56 | 36 | 0.0 | 0.9 | 0.00 | 0.00 | 0.00 | 10 | 1020.5 |
| 20260906170632 | 56 | 10 | 0.9 | 2.6 | 0.00 | 0.00 | 0.00 | 10 | 1020.3 |
| 20260906170131 | 56 | 34 | 0.0 | 1.7 | 0.00 | 0.00 | 0.00 | 10 | 1020.3 |
| 20260906165628 | 56 | 5 | 0.0 | 0.0 | 0.00 | 0.00 | 0.00 | 10 | 1020.6 |
| 20260906165123 | 56 | 21 | 0.9 | 1.7 | 0.00 | 0.00 | 0.00 | 10 | 1020.2 |
| 20260906164621 | 56 | 3 | 0.9 | 2.6 | 0.00 | 0.00 | 0.00 | 10 | 1020.7 |
| 20260906164118 | 56 | 18 | 0.0 | 1.7 | 0.00 | 0.00 | 0.00 | 10 | 1020.3 |
| 20260906163613 | 56 | 27 | 0.9 | 2.6 | 0.00 | 0.00 | 0.00 | 10 | 1020.7 |
| 20260906163109 | 56 | 18 | 0.0 | 0.0 | 0.00 | 0.00 | 0.00 | 10 | 1020.5 |
| 20260906162606 | 56 | 10 | 0.0 | 1.7 | 0.00 | 0.00 | 0.00 | 10 | 1020.1 |
| 20260906162101 | 56 | 45 | 0.0 | 1.7 | 0.00 | 0.00 | 0.00 | 10 | 1020.3 |
| 20260906161555 | 57 | 358 | 0.0 | 0.9 | 0.00 | 0.00 | 0.00 | 10 | 1020.3 |
| 20260906161054 | 58 | 41 | 0.0 | 0.0 | 0.00 | 0.00 | 0.00 | 10 | 1020.3 |
| 20260906160553 | 58 | 38 | 0.0 | 0.0 | 0.00 | 0.00 | 0.00 | 10 | 1020.5 |
| 20260906160052 | 58 | 67 | 0.0 | 0.0 | 0.00 | 0.00 | 0.00 | 10 | 1020.6 |
| 20260906155549 | 58 | 42 | 0.0 | 0.0 | 0.00 | 0.00 | 0.00 | 10 | 1020.5 |
| 20260906155045 | 58 | 56 | 0.0 | 0.0 | 0.00 | 0.00 | 0.00 | 10 | 1020.9 |
| 20260906154541 | 57 | 35 | 0.0 | 0.0 | 0.00 | 0.00 | 0.00 | 10 | 1020.8 |
| 20260906154039 | 57 | 17 | 0.0 | 0.0 | 0.00 | 0.00 | 0.00 | 10 | 1021.1 |
| 20260906153538 | 57 | 46 | 0.0 | 0.0 | 0.00 | 0.00 | 0.00 | 10 | 1021.1 |
| 20260906153034 | 58 | 13 | 0.0 | 0.0 | 0.00 | 0.00 | 0.00 | 10 | 1021.0 |
| 20260906152533 | 58 | 33 | 0.0 | 0.0 | 0.00 | 0.00 | 0.00 | 10 | 1020.9 |
| 20260906152032 | 58 | 4 | 0.0 | 0.0 | 0.00 | 0.00 | 0.00 | 10 | 1020.9 |
| 20260906151528 | 58 | 346 | 0.0 | 0.0 | 0.00 | 0.00 | 0.00 | 10 | 1020.9 |
| 20260906151025 | 58 | 0 | 0.0 | 0.0 | 0.00 | 0.00 | 0.00 | 10 | 1020.7 |
| 20260906150519 | 58 | 25 | 0.0 | 0.0 | 0.00 | 0.00 | 0.00 | 10 | 1020.9 |
| 20260906150015 | 58 | 2 | 0.0 | 0.0 | 0.00 | 0.00 | 0.00 | 10 | 1020.8 |
| 20260906145513 | 57 | 36 | 0.0 | 0.0 | 0.00 | 0.00 | 0.00 | 10 | 1021.0 |
| 20260906145009 | 57 | 36 | 0.0 | 0.0 | 0.00 | 0.00 | 0.00 | 10 | 1021.0 |
| 20260906144503 | 57 | 53 | 0.0 | 0.0 | 0.00 | 0.00 | 0.00 | 10 | 1020.8 |
| 20260906143958 | 57 | 49 | 0.0 | 0.0 | 0.00 | 0.00 | 0.00 | 10 | 1020.7 |
| 20260906143453 | 57 | 39 | 0.0 | 0.0 | 0.00 | 0.00 | 0.00 | 10 | 1020.7 |
| 20260906142949 | 57 | 40 | 0.0 | 0.0 | 0.00 | 0.00 | 0.00 | 10 | 1020.7 |
| 20260906142449 | 57 | 29 | 0.0 | 0.0 | 0.00 | 0.00 | 0.00 | 10 | 1020.7 |
| 20260906141943 | 57 | 48 | 0.0 | 0.9 | 0.00 | 0.00 | 0.00 | 10 | 1020.9 |
| 20260906141437 | 57 | 42 | 0.0 | 0.0 | 0.00 | 0.00 | 0.00 | 10 | 1020.9 |
| 20260906140932 | 57 | 61 | 0.0 | 0.0 | 0.00 | 0.00 | 0.00 | 10 | 1020.9 |
| 20260906140426 | 57 | 16 | 0.0 | 0.0 | 0.00 | 0.00 | 0.00 | 10 | 1020.9 |
| 20260906135919 | 56 | 50 | 0.0 | 0.9 | 0.00 | 0.00 | 0.00 | 10 | 1020.8 |
| 20260906135418 | 56 | 34 | 0.0 | 0.0 | 0.00 | 0.00 | 0.00 | 10 | 1020.7 |
| 20260906134914 | 55 | 37 | 0.0 | 0.0 | 0.00 | 0.00 | 0.00 | 10 | 1020.8 |
| 20260906134409 | 55 | 25 | 0.0 | 0.0 | 0.00 | 0.00 | 0.00 | 10 | 1020.6 |
| 20260906133904 | 55 | 40 | 0.0 | 0.0 | 0.00 | 0.00 | 0.00 | 10 | 1020.6 |
| 20260906133400 | 55 | 39 | 0.0 | 0.0 | 0.00 | 0.00 | 0.00 | 10 | 1020.3 |
| 20260906132855 | 55 | 37 | 0.0 | 0.0 | 0.00 | 0.00 | 0.00 | 10 | 1020.3 |
| 20260906132350 | 55 | 33 | 0.0 | 0.0 | 0.00 | 0.00 | 0.00 | 10 | 1020.3 |
| 20260906131846 | 55 | 30 | 0.0 | 0.0 | 0.00 | 0.00 | 0.00 | 10 | 1020.6 |
| 20260906131341 | 55 | 39 | 0.0 | 0.0 | 0.00 | 0.00 | 0.00 | 10 | 1020.8 |
| 20260906130837 | 55 | 38 | 0.0 | 0.9 | 0.00 | 0.00 | 0.00 | 10 | 1020.9 |
| 20260906130336 | 55 | 31 | 0.0 | 0.0 | 0.00 | 0.00 | 0.00 | 10 | 1020.8 |
| 20260906125835 | 55 | 40 | 0.0 | 0.0 | 0.00 | 0.00 | 0.00 | 10 | 1021.0 |
| 20260906125332 | 54 | 40 | 0.0 | 0.0 | 0.00 | 0.00 | 0.00 | 10 | 1021.0 |
| 20260906124827 | 55 | 33 | 0.0 | 0.0 | 0.00 | 0.00 | 0.00 | 10 | 1021.0 |
| 20260906124324 | 55 | 44 | 0.9 | 0.9 | 0.00 | 0.00 | 0.00 | 10 | 1020.9 |
| 20260906123823 | 55 | 46 | 0.0 | 1.7 | 0.00 | 0.00 | 0.00 | 10 | 1020.7 |
| 20260906123318 | 55 | 38 | 0.0 | 0.9 | 0.00 | 0.00 | 0.00 | 10 | 1020.8 |
| 20260906122817 | 55 | 20 | 0.0 | 1.7 | 0.00 | 0.00 | 0.00 | 10 | 1020.8 |
| 20260906122312 | 55 | 44 | 0.0 | 0.0 | 0.00 | 0.00 | 0.00 | 10 | 1020.6 |
| 20260906121809 | 54 | 30 | 0.0 | 0.0 | 0.00 | 0.00 | 0.00 | 10 | 1020.8 |
| 20260906121305 | 54 | 20 | 0.0 | 0.0 | 0.00 | 0.00 | 0.00 | 10 | 1021.0 |
| 20260906120801 | 54 | 37 | 0.0 | 0.0 | 0.00 | 0.00 | 0.00 | 10 | 1021.0 |
| 20260906120257 | 54 | 31 | 0.0 | 0.0 | 0.00 | 0.00 | 0.00 | 10 | 1021.0 |
| 20260906115753 | 54 | 43 | 0.0 | 0.0 | 0.00 | 0.00 | 0.00 | 10 | 1021.1 |
| 20260906115248 | 55 | 43 | 0.0 | 0.0 | 0.00 | 0.00 | 0.00 | 10 | 1021.0 |
| 20260906114747 | 55 | 35 | 0.0 | 0.0 | 0.00 | 0.00 | 0.00 | 10 | 1021.1 |
| 20260906114242 | 55 | 38 | 0.0 | 0.0 | 0.00 | 0.00 | 0.00 | 10 | 1021.1 |
| 20260906113737 | 55 | 36 | 0.0 | 0.0 | 0.00 | 0.00 | 0.00 | 10 | 1020.9 |
| 20260906113237 | 55 | 34 | 0.0 | 0.0 | 0.00 | 0.00 | 0.00 | 10 | 1020.9 |
| 20260906112731 | 55 | 40 | 0.0 | 0.0 | 0.00 | 0.00 | 0.00 | 10 | 1020.9 |
| 20260906112228 | 55 | 47 | 0.0 | 0.0 | 0.00 | 0.00 | 0.00 | 10 | 1021.0 |
| 20260906111727 | 55 | 27 | 0.0 | 0.0 | 0.00 | 0.00 | 0.00 | 10 | 1021.3 |
| 20260906111221 | 55 | 33 | 0.0 | 0.9 | 0.00 | 0.00 | 0.00 | 10 | 1021.1 |
| 20260906110717 | 55 | 33 | 0.0 | 0.0 | 0.00 | 0.00 | 0.00 | 10 | 1021.0 |
| 20260906110213 | 55 | 41 | 0.0 | 0.0 | 0.00 | 0.00 | 0.00 | 10 | 1021.1 |
| 20260906105711 | 55 | 27 | 0.0 | 0.0 | 0.00 | 0.00 | 0.00 | 10 | 1021.0 |
| 20260906105207 | 55 | 19 | 0.0 | 1.7 | 0.00 | 0.00 | 0.00 | 10 | 1021.0 |
| 20260906104707 | 55 | 22 | 0.9 | 1.7 | 0.00 | 0.00 | 0.00 | 10 | 1020.7 |
| 20260906104201 | 55 | 36 | 0.0 | 0.0 | 0.00 | 0.00 | 0.00 | 10 | 1021.0 |
| 20260906103658 | 55 | 4 | 0.0 | 0.0 | 0.00 | 0.00 | 0.00 | 10 | 1020.7 |
| 20260906103154 | 55 | 36 | 0.0 | 0.0 | 0.00 | 0.00 | 0.00 | 10 | 1021.0 |
| 20260906102648 | 55 | 45 | 0.0 | 0.9 | 0.00 | 0.00 | 0.00 | 10 | 1021.2 |
| 20260906102143 | 55 | 9 | 0.0 | 1.7 | 0.00 | 0.00 | 0.00 | 10 | 1021.4 |
| 20260906101642 | 55 | 39 | 0.0 | 0.9 | 0.00 | 0.00 | 0.00 | 10 | 1021.3 |
| 20260906101137 | 55 | 31 | 0.0 | 0.9 | 0.00 | 0.00 | 0.00 | 10 | 1021.1 |
| 20260906100633 | 55 | 27 | 0.0 | 1.7 | 0.00 | 0.00 | 0.00 | 10 | 1020.9 |
| 20260906100127 | 55 | 31 | 0.0 | 1.7 | 0.00 | 0.00 | 0.00 | 10 | 1021.0 |
| 20260906095622 | 55 | 19 | 0.0 | 0.0 | 0.00 | 0.00 | 0.00 | 10 | 1021.0 |
| 20260906095118 | 55 | 13 | 0.0 | 0.9 | 0.00 | 0.00 | 0.00 | 10 | 1021.0 |
| 20260906094616 | 55 | 30 | 0.9 | 1.7 | 0.00 | 0.00 | 0.00 | 10 | 1021.2 |
| 20260906094112 | 55 | 45 | 0.0 | 1.7 | 0.00 | 0.00 | 0.00 | 10 | 1021.0 |
| 20260906093609 | 54 | 37 | 0.0 | 0.0 | 0.00 | 0.00 | 0.00 | 10 | 1021.3 |
| 20260906093103 | 54 | 10 | 0.0 | 0.0 | 0.00 | 0.00 | 0.00 | 10 | 1021.2 |
| 20260906092558 | 54 | 22 | 0.0 | 1.7 | 0.00 | 0.00 | 0.00 | 10 | 1021.2 |
| 20260906092053 | 54 | 339 | 0.9 | 1.7 | 0.00 | 0.00 | 0.00 | 10 | 1021.2 |
| 20260906091548 | 54 | 36 | 0.0 | 0.9 | 0.00 | 0.00 | 0.00 | 10 | 1021.3 |
| 20260906091040 | 54 | 6 | 0.0 | 0.0 | 0.00 | 0.00 | 0.00 | 10 | 1021.7 |
| 20260906090539 | 54 | 25 | 0.0 | 1.7 | 0.00 | 0.00 | 0.00 | 10 | 1021.6 |
| 20260906090034 | 54 | 23 | 0.0 | 0.0 | 0.00 | 0.00 | 0.00 | 10 | 1021.6 |
| 20260906085533 | 54 | 12 | 0.0 | 0.9 | 0.00 | 0.00 | 0.00 | 10 | 1021.4 |
| 20260906085033 | 54 | 356 | 0.9 | 1.7 | 0.00 | 0.00 | 0.00 | 10 | 1021.6 |
| 20260906084528 | 54 | 9 | 0.0 | 1.7 | 0.00 | 0.00 | 0.00 | 10 | 1021.9 |
| 20260906084026 | 54 | 9 | 0.0 | 1.7 | 0.00 | 0.00 | 0.00 | 10 | 1021.8 |
| 20260906083522 | 54 | 20 | 0.0 | 0.0 | 0.00 | 0.00 | 0.00 | 10 | 1021.8 |
| 20260906083022 | 54 | 12 | 0.0 | 0.0 | 0.00 | 0.00 | 0.00 | 10 | 1021.6 |
| 20260906082517 | 54 | 20 | 0.0 | 1.7 | 0.00 | 0.00 | 0.00 | 10 | 1022.0 |
| 20260906082013 | 54 | 22 | 0.0 | 0.0 | 0.00 | 0.00 | 0.00 | 10 | 1021.9 |
| 20260906081508 | 54 | 18 | 0.0 | 0.0 | 0.00 | 0.00 | 0.00 | 10 | 1021.8 |
| 20260906081004 | 54 | 27 | 0.0 | 0.9 | 0.00 | 0.00 | 0.00 | 10 | 1021.9 |
| 20260906080500 | 54 | 32 | 0.0 | 1.7 | 0.00 | 0.00 | 0.00 | 10 | 1021.9 |
| 20260906075955 | 54 | 21 | 0.9 | 1.7 | 0.00 | 0.00 | 0.00 | 10 | 1021.9 |
| 20260906075450 | 55 | 51 | 0.9 | 1.7 | 0.00 | 0.00 | 0.00 | 10 | 1021.9 |
| 20260906074944 | 55 | 38 | 0.0 | 0.9 | 0.00 | 0.00 | 0.00 | 10 | 1021.7 |
| 20260906074439 | 55 | 36 | 0.0 | 0.9 | 0.00 | 0.00 | 0.00 | 10 | 1021.7 |
| 20260906073937 | 55 | 33 | 0.0 | 0.9 | 0.00 | 0.00 | 0.00 | 10 | 1021.8 |
| 20260906073432 | 55 | 41 | 0.0 | 0.9 | 0.00 | 0.00 | 0.00 | 10 | 1022.0 |
| 20260906072929 | 55 | 349 | 0.0 | 0.9 | 0.00 | 0.00 | 0.00 | 10 | 1022.1 |
| 20260906072424 | 56 | 35 | 0.0 | 1.7 | 0.00 | 0.00 | 0.00 | 10 | 1022.1 |
| 20260906071920 | 56 | 22 | 0.0 | 1.7 | 0.00 | 0.00 | 0.00 | 10 | 1022.1 |
| 20260906071416 | 56 | 24 | 0.0 | 1.7 | 0.00 | 0.00 | 0.00 | 10 | 1022.2 |
| 20260906070912 | 56 | 32 | 0.0 | 0.9 | 0.00 | 0.00 | 0.00 | 10 | 1022.3 |
| 20260906070407 | 57 | 17 | 0.0 | 0.0 | 0.00 | 0.00 | 0.00 | 10 | 1022.3 |
| 20260906065903 | 56 | 39 | 0.0 | 1.7 | 0.00 | 0.00 | 0.00 | 10 | 1022.2 |
| 20260906065356 | 56 | 12 | 0.9 | 1.7 | 0.00 | 0.00 | 0.00 | 10 | 1022.5 |
| 20260906064853 | 56 | 15 | 0.0 | 0.0 | 0.00 | 0.00 | 0.00 | 10 | 1022.4 |
| 20260906064349 | 56 | 348 | 0.0 | 1.7 | 0.00 | 0.00 | 0.00 | 10 | 1022.5 |
| 20260906063848 | 56 | 15 | 0.0 | 0.0 | 0.00 | 0.00 | 0.00 | 10 | 1022.8 |
| 20260906063344 | 56 | 37 | 0.0 | 0.0 | 0.00 | 0.00 | 0.00 | 10 | 1022.7 |
| 20260906062839 | 56 | 32 | 0.0 | 0.0 | 0.00 | 0.00 | 0.00 | 10 | 1022.7 |
| 20260906062338 | 56 | 9 | 0.0 | 0.0 | 0.00 | 0.00 | 0.00 | 10 | 1022.7 |
| 20260906061834 | 56 | 356 | 0.9 | 1.7 | 0.00 | 0.00 | 0.00 | 10 | 1022.8 |
| 20260906061330 | 56 | 31 | 0.0 | 0.9 | 0.00 | 0.00 | 0.00 | 10 | 1022.3 |
| 20260906060824 | 56 | 39 | 0.0 | 0.0 | 0.00 | 0.00 | 0.00 | 10 | 1022.7 |
| 20260906060323 | 56 | 20 | 0.0 | 1.7 | 0.00 | 0.00 | 0.00 | 10 | 1022.5 |
| 20260906055818 | 56 | 4 | 0.0 | 0.0 | 0.00 | 0.08 | 0.08 | 10 | 1022.4 |
| 20260906055314 | 56 | 21 | 0.0 | 0.0 | 0.00 | 0.08 | 0.08 | 10 | 1022.4 |
| 20260906054809 | 56 | 37 | 0.0 | 0.0 | 0.00 | 0.08 | 0.08 | 10 | 1022.4 |
| 20260906054304 | 56 | 356 | 0.0 | 0.9 | 0.00 | 0.08 | 0.08 | 10 | 1022.3 |
| 20260906053800 | 56 | 29 | 0.9 | 0.9 | 0.00 | 0.08 | 0.08 | 10 | 1022.3 |
| 20260906053255 | 56 | 22 | 0.0 | 0.9 | 0.00 | 0.08 | 0.08 | 10 | 1022.3 |
| 20260906052750 | 56 | 25 | 0.0 | 0.0 | 0.00 | 0.08 | 0.08 | 10 | 1022.5 |
| 20260906052247 | 56 | 25 | 0.0 | 0.0 | 0.00 | 0.08 | 0.08 | 10 | 1022.3 |
| 20260906051744 | 56 | 31 | 0.0 | 0.9 | 0.00 | 0.08 | 0.08 | 10 | 1022.3 |
| 20260906051243 | 56 | 35 | 0.0 | 0.0 | 0.00 | 0.08 | 0.08 | 10 | 1022.3 |
| 20260906050738 | 56 | 15 | 0.0 | 1.7 | 0.00 | 0.08 | 0.08 | 10 | 1022.4 |
| 20260906050233 | 56 | 20 | 0.0 | 0.9 | 0.00 | 0.08 | 0.08 | 10 | 1023.8 |
| 20260906045732 | 56 | 7 | 0.0 | 1.7 | 0.00 | 0.08 | 0.08 | 10 | 1023.1 |
| 20260906045227 | 56 | 28 | 0.0 | 1.7 | 0.00 | 0.08 | 0.08 | 10 | 1022.7 |
| 20260906044723 | 56 | 28 | 0.0 | 0.9 | 0.00 | 0.08 | 0.08 | 10 | 1022.4 |
| 20260906044218 | 56 | 17 | 0.0 | 0.0 | 0.00 | 0.08 | 0.08 | 10 | 1022.4 |
| 20260906043714 | 56 | 34 | 0.0 | 0.9 | 0.00 | 0.08 | 0.08 | 10 | 1021.9 |
| 20260906043210 | 56 | 20 | 0.0 | 0.9 | 0.00 | 0.08 | 0.08 | 10 | 1021.8 |
| 20260906042709 | 56 | 28 | 0.0 | 1.7 | 0.00 | 0.08 | 0.08 | 10 | 1021.9 |
| 20260906042209 | 56 | 36 | 0.0 | 0.0 | 0.00 | 0.08 | 0.08 | 10 | 1021.7 |
| 20260906041704 | 56 | 11 | 0.0 | 0.0 | 0.00 | 0.08 | 0.08 | 10 | 1021.6 |
| 20260906041159 | 56 | 45 | 0.0 | 1.7 | 0.00 | 0.08 | 0.08 | 10 | 1021.9 |
| 20260906040655 | 56 | 42 | 0.0 | 1.7 | 0.00 | 0.08 | 0.08 | 10 | 1022.1 |
| 20260906040150 | 56 | 17 | 0.0 | 0.0 | 0.00 | 0.08 | 0.08 | 10 | 1021.9 |
| 20260906035645 | 56 | 37 | 0.0 | 2.6 | 0.00 | 0.08 | 0.08 | 10 | 1022.0 |
| 20260906035141 | 56 | 9 | 0.0 | 2.6 | 0.24 | 0.08 | 0.08 | 10 | 1021.9 |
| 20260906034635 | 56 | 350 | 0.0 | 1.7 | 0.35 | 0.07 | 0.07 | 10 | 1022.2 |
| 20260906034130 | 59 | 21 | 0.0 | 0.0 | 0.07 | 0.02 | 0.02 | 10 | 1022.1 |
| 20260906033625 | 59 | 327 | 0.0 | 0.9 | 0.00 | 0.01 | 0.01 | 10 | 1023.4 |
| 20260906033120 | 59 | 349 | 0.0 | 0.9 | 0.00 | 0.01 | 0.01 | 10 | 1022.9 |
| 20260906032617 | 59 | 348 | 0.0 | 0.9 | 0.00 | 0.01 | 0.01 | 10 | 1022.0 |
| 20260906032116 | 59 | 354 | 0.9 | 2.6 | 0.00 | 0.01 | 0.01 | 10 | 1021.3 |
| 20260906031612 | 59 | 33 | 0.0 | 1.7 | 0.00 | 0.01 | 0.01 | 10 | 1021.3 |
| 20260906031107 | 59 | 20 | 0.9 | 1.7 | 0.00 | 0.01 | 0.01 | 10 | 1021.2 |
| 20260906030606 | 59 | 25 | 0.0 | 0.0 | 0.00 | 0.01 | 0.01 | 10 | 1021.3 |
| 20260906025556 | 59 | 22 | 0.0 | 0.0 | 0.00 | 0.01 | 0.01 | 10 | 1021.1 |
| 20260906025054 | 59 | 52 | 0.0 | 0.0 | 0.00 | 0.01 | 0.01 | 10 | 1021.0 |
| 20260906024550 | 59 | 37 | 0.0 | 1.7 | 0.00 | 0.01 | 0.01 | 10 | 1021.0 |
| 20260906024049 | 59 | 45 | 0.0 | 0.0 | 0.00 | 0.01 | 0.01 | 10 | 1020.9 |
| 20260906023546 | 59 | 17 | 0.0 | 1.7 | 0.00 | 0.01 | 0.01 | 10 | 1020.7 |
| 20260906023040 | 59 | 39 | 0.0 | 0.0 | 0.00 | 0.01 | 0.01 | 10 | 1020.9 |
| 20260906022535 | 60 | 47 | 0.0 | 0.0 | 0.00 | 0.01 | 0.01 | 10 | 1020.7 |
| 20260906022031 | 60 | 31 | 0.0 | 0.9 | 0.00 | 0.01 | 0.01 | 10 | 1020.6 |
| 20260906021526 | 60 | 30 | 0.9 | 1.7 | 0.00 | 0.01 | 0.01 | 10 | 1020.8 |
| 20260906021020 | 60 | 27 | 0.0 | 0.0 | 0.00 | 0.01 | 0.01 | 10 | 1020.9 |
| 20260906020519 | 60 | 32 | 0.9 | 0.9 | 0.00 | 0.01 | 0.01 | 10 | 1021.0 |
| 20260906020019 | 60 | 24 | 0.0 | 0.0 | 0.00 | 0.01 | 0.01 | 10 | 1020.9 |
| 20260906015518 | 61 | 24 | 0.0 | 0.9 | 0.00 | 0.01 | 0.01 | 10 | 1021.0 |
| 20260906015018 | 61 | 35 | 0.9 | 1.7 | 0.00 | 0.01 | 0.01 | 10 | 1020.9 |
| 20260906014513 | 61 | 36 | 0.0 | 0.9 | 0.00 | 0.01 | 0.01 | 10 | 1020.8 |
| 20260906014009 | 61 | 29 | 0.0 | 0.0 | 0.00 | 0.01 | 0.01 | 10 | 1020.9 |
| 20260906013504 | 62 | 22 | 0.0 | 0.0 | 0.00 | 0.01 | 0.01 | 10 | 1020.7 |
| 20260906013000 | 62 | 22 | 0.0 | 0.0 | 0.00 | 0.01 | 0.01 | 10 | 1020.9 |
| 20260906012454 | 62 | 23 | 0.0 | 0.9 | 0.00 | 0.01 | 0.01 | 10 | 1020.6 |
| 20260906011954 | 62 | 19 | 0.0 | 1.7 | 0.00 | 0.01 | 0.01 | 10 | 1020.5 |
| 20260906011449 | 62 | 39 | 0.0 | 0.9 | 0.00 | 0.01 | 0.01 | 10 | 1020.8 |
| 20260906010944 | 63 | 341 | 0.0 | 1.7 | 0.00 | 0.01 | 0.01 | 10 | 1020.5 |
| 20260906010440 | 64 | 8 | 0.9 | 2.6 | 0.00 | 0.01 | 0.01 | 10 | 1020.6 |
| 20260906005936 | 64 | 28 | 0.9 | 1.7 | 0.00 | 0.01 | 0.01 | 10 | 1020.6 |
| 20260906005436 | 65 | 20 | 0.0 | 1.7 | 0.00 | 0.01 | 0.01 | 10 | 1020.6 |
| 20260906004934 | 66 | 22 | 0.9 | 1.7 | 0.00 | 0.01 | 0.01 | 10 | 1020.7 |
| 20260906004429 | 66 | 22 | 0.0 | 1.7 | 0.00 | 0.01 | 0.01 | 10 | 1020.6 |
| 20260906003925 | 66 | 15 | 0.0 | 1.7 | 0.00 | 0.01 | 0.01 | 10 | 1020.7 |
| 20260906003419 | 67 | 27 | 0.0 | 0.0 | 0.00 | 0.01 | 0.01 | 10 | 1020.5 |
| 20260906002915 | 67 | 6 | 0.0 | 0.9 | 0.00 | 0.01 | 0.01 | 10 | 1020.5 |
| 20260906002414 | 67 | 29 | 0.0 | 0.0 | 0.00 | 0.01 | 0.01 | 10 | 1020.5 |
| 20260906001909 | 67 | 26 | 0.9 | 4.3 | 0.00 | 0.01 | 0.01 | 10 | 1020.5 |
| 20260906001405 | 68 | 20 | 0.0 | 1.7 | 0.00 | 0.01 | 0.01 | 10 | 1020.7 |
| 20260906000905 | 68 | 22 | 0.0 | 1.7 | 0.00 | 0.01 | 0.01 | 10 | 1020.7 |
| 20260906000403 | 68 | 328 | 0.9 | 1.7 | 0.00 | 0.01 | 0.01 | 10 | 1020.8 |
| 20260905235855 | 68 | 30 | 0.0 | 1.7 | 0.00 | 0.01 | 0.01 | 10 | 1020.9 |
| 20260905235349 | 68 | 19 | 0.0 | 0.9 | 0.00 | 0.01 | 0.01 | 10 | 1020.8 |
| 20260905234844 | 68 | 28 | 0.0 | 0.0 | 0.00 | 0.01 | 0.01 | 10 | 1020.8 |
| 20260905234340 | 68 | 19 | 0.0 | 2.6 | 0.00 | 0.01 | 0.01 | 10 | 1020.8 |
| 20260905233835 | 69 | 19 | 0.0 | 0.0 | 0.00 | 0.01 | 0.01 | 10 | 1021.0 |
| 20260905233330 | 69 | 19 | 0.0 | 0.0 | 0.00 | 0.01 | 0.01 | 10 | 1020.7 |
| 20260905232829 | 68 | 17 | 0.0 | 0.9 | 0.00 | 0.01 | 0.01 | 10 | 1020.9 |
| 20260905232325 | 69 | 1 | 0.0 | 0.9 | 0.00 | 0.01 | 0.01 | 10 | 1020.8 |
| 20260905231821 | 70 | 32 | 0.0 | 0.0 | 0.00 | 0.01 | 0.01 | 10 | 1021.1 |